N412WM KCHA-KCHA

Flight info

Callsign N412WM
Flight time 0h 13m
Altitude VFRFF
Route
Aircraft C172/L-DOV/C

Departure

Time 2026-04-27 00:32
Airport Chattanooga Metropolitan Airport (Lovell Field) (KCHA)

Arrival

Time 2026-04-27 00:45
Airport Chattanooga Metropolitan Airport (Lovell Field) (KCHA)
Time Latitude Longitude Altitude Speed Heading
2026-04-27 00:31 34.75797 -84.90146 2670 ft 91 kts 338°
2026-04-27 00:31 34.76400 -84.90410 2808 ft 87 kts 353°
2026-04-27 00:31 34.76904 -84.90768 2949 ft 88 kts 316°
2026-04-27 00:32 34.77361 -84.91263 3067 ft 88 kts 320°
2026-04-27 00:32 34.77810 -84.91765 3201 ft 88 kts 321°
2026-04-27 00:32 34.78262 -84.92269 3297 ft 90 kts 322°
2026-04-27 00:32 34.78729 -84.92787 3407 ft 90 kts 321°
2026-04-27 00:33 34.79192 -84.93298 3503 ft 90 kts 322°
2026-04-27 00:33 34.79661 -84.93818 3597 ft 92 kts 322°
2026-04-27 00:33 34.80148 -84.94356 3623 ft 100 kts 321°
2026-04-27 00:33 34.80675 -84.94936 3625 ft 103 kts 321°
2026-04-27 00:34 34.81206 -84.95527 3622 ft 104 kts 321°
2026-04-27 00:34 34.81746 -84.96125 3624 ft 106 kts 321°
2026-04-27 00:34 34.82294 -84.96731 3621 ft 106 kts 321°
2026-04-27 00:34 34.82845 -84.97343 3620 ft 108 kts 320°
2026-04-27 00:35 34.83397 -84.97954 3618 ft 109 kts 321°
2026-04-27 00:35 34.83961 -84.98565 3636 ft 106 kts 325°
2026-04-27 00:35 34.84510 -84.99196 3610 ft 111 kts 317°
2026-04-27 00:35 34.85078 -84.99829 3608 ft 110 kts 321°
2026-04-27 00:36 34.85639 -85.00448 3610 ft 111 kts 320°
2026-04-27 00:36 34.86212 -85.01079 3609 ft 111 kts 320°
2026-04-27 00:36 34.86781 -85.01710 3607 ft 110 kts 320°
2026-04-27 00:36 34.87352 -85.02342 3606 ft 111 kts 321°
2026-04-27 00:37 34.87728 -85.02762 3603 ft 110 kts 320°
2026-04-27 00:37 34.88277 -85.03419 3588 ft 110 kts 319°
2026-04-27 00:37 34.88825 -85.04068 3588 ft 109 kts 319°
2026-04-27 00:37 34.89372 -85.04712 3585 ft 109 kts 319°
2026-04-27 00:38 34.89908 -85.05361 3591 ft 110 kts 319°
2026-04-27 00:38 34.90453 -85.06028 3591 ft 111 kts 320°
2026-04-27 00:38 34.90999 -85.06695 3593 ft 111 kts 319°
2026-04-27 00:38 34.91548 -85.07368 3593 ft 112 kts 319°
2026-04-27 00:39 34.92099 -85.08043 3599 ft 113 kts 319°
2026-04-27 00:39 34.92649 -85.08716 3604 ft 114 kts 319°
2026-04-27 00:39 34.93233 -85.09418 3438 ft 121 kts 320°
2026-04-27 00:39 34.93818 -85.10125 3180 ft 115 kts 319°
2026-04-27 00:40 34.94374 -85.10823 2934 ft 114 kts 320°
2026-04-27 00:40 34.94856 -85.11594 2666 ft 119 kts 289°
2026-04-27 00:40 34.94998 -85.12531 2594 ft 105 kts 285°
2026-04-27 00:40 34.95115 -85.13359 2587 ft 95 kts 284°
2026-04-27 00:41 34.95216 -85.14136 2607 ft 95 kts 283°
2026-04-27 00:41 34.95346 -85.14971 2621 ft 107 kts 284°
2026-04-27 00:41 34.95503 -85.15918 2611 ft 117 kts 284°
2026-04-27 00:41 34.95662 -85.16900 2608 ft 118 kts 284°
2026-04-27 00:42 34.95818 -85.17885 2603 ft 117 kts 284°
2026-04-27 00:42 34.95974 -85.18836 2592 ft 114 kts 285°
2026-04-27 00:42 34.96140 -85.19775 2566 ft 113 kts 285°
2026-04-27 00:42 34.96300 -85.20690 2400 ft 112 kts 285°
2026-04-27 00:43 34.96474 -85.21640 2224 ft 116 kts 287°
2026-04-27 00:43 34.96756 -85.22532 2116 ft 108 kts 307°
2026-04-27 00:43 34.97312 -85.23059 2020 ft 101 kts 357°
2026-04-27 00:43 34.97941 -85.22700 1795 ft 108 kts 41°
2026-04-27 00:44 34.98552 -85.22166 1570 ft 107 kts 28°
2026-04-27 00:44 34.99237 -85.21871 1397 ft 102 kts 18°
2026-04-27 00:44 34.99902 -85.21626 1243 ft 99 kts 19°
2026-04-27 00:44 35.00555 -85.21387 1134 ft 94 kts 18°
2026-04-27 00:45 35.01185 -85.21151 980 ft 95 kts 18°
2026-04-27 00:45 35.01807 -85.20925 825 ft 92 kts 19°
2026-04-27 00:45 35.02364 -85.20718 734 ft 71 kts 19°
2026-04-27 00:45 35.02751 -85.20573 686 ft 45 kts 17°
2026-04-27 00:46 35.02960 -85.20474 687 ft 10 kts 85°
2026-04-27 00:46 35.02942 -85.20399 686 ft 7 kts 102°
2026-04-27 00:46 35.02940 -85.20389 686 ft 0 kts 97°
2026-04-27 00:47 35.02937 -85.20373 686 ft 8 kts 127°
2026-04-27 00:47 35.02860 -85.20394 686 ft 15 kts 197°
2026-04-27 00:48 35.02737 -85.20437 686 ft 21 kts 198°
2026-04-27 00:48 35.02624 -85.20457 686 ft 9 kts 129°
2026-04-27 00:48 35.02574 -85.20427 686 ft 9 kts 192°